CZ-6A DEB

Satellite information

Favourite Embed

Satellite Type and Status

DEBRISIN ORBIT

Key statistics

Satellite CZ-6A DEB at a glance.

Uptime

969

Days in orbit

Revolutions

≈ 14.2

Per day

Orbit

SSO

Sun Synchronous Orbit

Inclination

98.8

Latest

Satellite identification and parameters

Extended collection of information and parameters for CZ-6A DEB.

Object identification

Identified? True

Debris? True

Object name: CZ-6A DEB

International designator: 2022-151AAB

Object number (NORAD): 55879

Object ID (CCSDS): 55879

Country: PEOPLES REPUBLIC OF CHINA (PRC)

Current information (Y/N): Y

RCS size: SMALL

Orbital parameters

Period: 101.273 minutes

Inclination: 98.7905 deg

SMA: 7197.077 km

Apoapsis: 849.396 km

Periapsis: 788.487 km

RAAN: 190.2022 deg

Eccentricy: 0.0042315

Argument of periapsis: 234.4387 deg

Mean anomaly: 125.2842 deg

Mean motion: 14.21898405 rev/day

Mean motion (dot): 0.00003566 rev/day2

B* drag term: 0.0016221 1/REarth

Two-line elements (TLE)

Creation date: July 4, 2025, 6:39 p.m.

Reference frame: TEME

Reference center: EARTH

Epoch: July 4, 2025, 11:13 a.m. UTC

TLE line 0: 0 CZ-6A DEB

TLE line 1: 1 55879U 22151AAB 25185.46748615 .00003566 00000-0 16221-2 0 9991

TLE line 2: 2 55879 98.7905 190.2022 0042315 234.4387 125.2842 14.21898405124199

Live tracking on map

Real-time ground track for satellite CZ-6A DEB.

In-orbit conjunctions

A list of the most updated potential collisions computed for object CZ-6A DEB.

Target Orbit TCA Probability of collision Miss distance Type
PEGASUS R/B LEO 2025-03-27 17:58:47 0.0003033001 673.0 (m) ROCKET BODY
SL-14 DEB LEO 2024-06-30 14:38:32 0.0001220613 348.0 (m) DEBRIS

Associated space launch

Chinese satellite reported for atmospheric/ocean/environmental/spatial parameter research purposes, details TBD.

CZ-6A DEB was lifted into orbit during the mission ‘Long March 6A | Yunhai 3’, on board a Long March 6A space rocket.

The launch took place on Nov. 11, 2022, 10:52 p.m. from Launch Complex 9A.

For more information about the launch, click the button.

Launch to space Long March 6A | Yunhai 3
Long March 6A | Yunhai 3

Agency: N/A

Status: Launch Successful

Launch date: Nov. 11, 2022, 10:52 p.m. UTC

Rocket: Long March 6A

Launch pad: Launch Complex 9A

Location: Taiyuan Satellite Launch Center, People's Republic of China

...

Latest news about this satellite

There are no fresh news available about this satellite. Check back as we update our databases every day.


Newsletter sign-up

Weekly statistics, charts and insights to help you stay on top of the space industry.